WATER LEVELS

Guaranteed water level and forecast    Ústí nad Labem-Střekov

Guaranteed water level
Nad 275 cm
on 20.10.2020 more information
Forecast
270 cm
on 21.10.2020 07:00
Tendency
Slowly decreasing
on 21.10.2020 metodika tendence
Forecast
(Source data ČHMÚ a Povodí Labe)

Ústí nad Labem

Date and time (UTC) H (cm) Q (m3/s)
21. 10. 2020 08:10 272 348
21. 10. 2020 08:00 272 348
21. 10. 2020 07:00 275 356
21. 10. 2020 06:00 283 375
21. 10. 2020 05:00 285 380
21. 10. 2020 04:00 286 382
21. 10. 2020 03:00 287 384
21. 10. 2020 02:00 286 382
21. 10. 2020 01:00 285 380
21. 10. 2020 00:00 283 375
20. 10. 2020 23:00 282 372
20. 10. 2020 22:00 281 370
20. 10. 2020 21:00 284 377
20. 10. 2020 20:00 280 367

H - water level, Q - discharge
more information

Mělník

Date and time (UTC) H (cm) Q (m3/s)
21. 10. 2020 08:20 286 -
21. 10. 2020 08:00 286 -
21. 10. 2020 07:00 285 -
21. 10. 2020 06:00 284 320
21. 10. 2020 05:00 285 -
21. 10. 2020 04:00 285 -
21. 10. 2020 03:00 285 -
21. 10. 2020 02:00 286 -
21. 10. 2020 01:00 288 -
21. 10. 2020 00:00 290 -
20. 10. 2020 23:00 292 -
20. 10. 2020 22:00 293 -
20. 10. 2020 21:00 293 -
20. 10. 2020 20:00 293 -

H - water level, Q - discharge
more information

Kostelec nad Labem

Date and time (UTC) H (cm) Q (m3/s)
21. 10. 2020 08:20 433 -
21. 10. 2020 08:00 432 -
21. 10. 2020 07:00 425 140
21. 10. 2020 06:00 417 138
21. 10. 2020 05:00 410 133
21. 10. 2020 04:00 407 132
21. 10. 2020 03:00 406 128
21. 10. 2020 02:00 406 125
21. 10. 2020 01:00 409 123
21. 10. 2020 00:00 416 121
20. 10. 2020 23:00 421 132
20. 10. 2020 22:00 426 136
20. 10. 2020 21:00 431 144
20. 10. 2020 20:00 436 149

H - water level, Q - discharge
more information

Přelouč

Date and time (UTC) H (cm) Q (m3/s)
21. 10. 2020 08:20 141 105
21. 10. 2020 08:00 140 104
21. 10. 2020 07:00 147 112
21. 10. 2020 06:00 148 113
21. 10. 2020 05:00 149 114
21. 10. 2020 04:00 150 115
21. 10. 2020 03:00 150 115
21. 10. 2020 02:00 151 117
21. 10. 2020 01:00 152 118
21. 10. 2020 00:00 152 118
20. 10. 2020 23:00 152 118
20. 10. 2020 22:00 153 119
20. 10. 2020 21:00 153 119
20. 10. 2020 20:00 153 119

H - water level, Q - discharge
more information

Praha-Chuchle

Date and time (UTC) H (cm) Q (m3/s)
21. 10. 2020 08:10 78 185
21. 10. 2020 08:00 78 185
21. 10. 2020 07:00 78 185
21. 10. 2020 06:00 78 185
21. 10. 2020 05:00 78 185
21. 10. 2020 04:00 77 179
21. 10. 2020 03:00 78 185
21. 10. 2020 02:00 78 185
21. 10. 2020 01:00 78 185
21. 10. 2020 00:00 78 185
20. 10. 2020 23:00 78 185
20. 10. 2020 22:00 78 185
20. 10. 2020 21:00 78 185
20. 10. 2020 20:00 78 185

H - water level, Q - discharge
more information

České Budějovice

Date and time (UTC) H (cm) Q (m3/s)
21. 10. 2020 08:10 103 17.2
21. 10. 2020 08:00 103 18
21. 10. 2020 07:00 102 18
21. 10. 2020 06:00 102 18
21. 10. 2020 05:00 103 18
21. 10. 2020 04:00 103 17
21. 10. 2020 03:00 103 17
21. 10. 2020 02:00 102 18
21. 10. 2020 01:00 103 19
21. 10. 2020 00:00 103 18
20. 10. 2020 23:00 102 18
20. 10. 2020 22:00 103 19
20. 10. 2020 21:00 103 18
20. 10. 2020 20:00 102 19

H - water level, Q - discharge
more information
Source data
Labe Basin Vltava Basin Povodí Moravy ČHMÚ